RADUGA 9 [-]

Last updated on Tue Jun 27 2023 00:03:02 GMT+0000 (Coordinated Universal Time)

1 12618U 81069A 23176.80348755 -.00000348 00000+0 00000+0 0 9995 2 12618 9.1374 303.7570 0005446 158.7711 214.4446 1.00266254117435

Satellite not in orbit

RADUGA 9 [-]